Showing default

COSMOS 1860, 18122

Orbit data source: Space-Track

COSMOS 1860, 18122 is a payload satellite owned by VMF (CIS) in LEO that was launched on Thu, 18 Jun 1987 UTC via a TSIKLON-2 launch vehicle from the Tyuratam Missile And Space Complex (TTMTR). Payload-class satellites include a variety of spacecraft equipped with specific instruments for various scientific and technological missions. These include communications satellites like Starlink; space stations such as the ISS; scientific satellites like the Hubble; Earth observation satellites from companies like Planet Labs, Umbra, and HawkEye 360; GPS; miniature CubeSats for education and research; and military/defense satellites.

Loading next visibility...
Identifier
18122, 1987-052A
Orbit
LEO
Country
Flag of CISCIS
Related business
Manufacturer
ARSL/KOMET
Mission
Defense Sigint
Bus & Motor
US-A REACTOR, Unknown motor
Mass
4,300 kg wet, 1,154 kg dry
Launch date (UTC)
1987-06-18 (39 years ago)
Launch vehicle
TSIKLON-2
Launch site
Tyuratam Missile And Space Complex (TTMTR)
Object type
Payload
Rocket body
Debris
Shape & HBR
Cone + Cyl, 2.9 m
Radar Cross Section
6.586 m², Large (>1 m²)

Expand to show TLE details & history
Last TLE update: 3 days ago

TLE from 3 days ago
0 COSMOS 1860
1 18122U 87052A   26170.98695566 -.00000074  00000-0  12711-4 0  9994
2 18122  65.0112  22.1880 0055010 208.9454 150.8553 13.84969681973208
Epoch: 2026-06-19T23:41Z
TLE epoch observation values (Epoch: 2026-06-19T23:41:12.969Z)
Latitude
-0.00003°
Longitude
118.6759°
Altitude
983.489 km
Speed
7.343 km/s
True Right ascension
01h 28m 45s
True Declination
0° 00' 00"
Sunlit
Object was in daylight at epoch
Visualization orbit readout
Latitude
Unknown
Longitude
Unknown
Altitude
Unknown
Speed
Unknown
Apparent Right ascension
Unknown
Apparent Declination
Unknown
Sunlit
N/A
Visualization observer readout
Local Sidereal Time
23:09:06
Azimuth
Unknown
Elevation
Unknown
Doppler factor
Unknown
Orbital elements
Apogee altitude
985.205 km
Perigee altitude
904.636 km
Semi-major axis
7,323.057 km
Eccentricity
0.0055
Inclination
65.0112°
RAAN
22.188°
Arg. of periapsis
208.9454°
True anomaly
151.16047°
Mean anomaly
150.8553°
Eccentric anomaly
151.00807°
Mean motion
3.46341 °/min
Orbital period
103.94 mins
BSTAR
0.000012711
Loading maneuver chart data...
Computing Atmospheric mass density...
Loading historical data...
Loading historical data...
Loading historical data...
Loading historical data...
Loading historical data...
Loading historical data...
Loading historical data...

Documentation

Showing up to 5 results
|